Data No, UTC Date,UTC Time,Latitude,Longitude,Course(deg),Temp(degC),Sal(psu),pH
732,2019/7/8,12:11,35-35.85N,139-47.21E,215,22.0096,25.9213,8.03
733,2019/7/8,12:12,35-35.65N,139-47.12E,196,21.845,25.8711,8.05
734,2019/7/8,12:13,35-35.43N,139-47.13E,169,22.056,25.8526,8.05
735,2019/7/8,12:14,35-35.24N,139-47.24E,153,22.093,25.7705,8.05
736,2019/7/8,12:15,35-35.07N,139-47.40E,141,22.071,25.5089,8.07
737,2019/7/8,12:16,35-34.90N,139-47.56E,140,21.578,25.2606,8.11
738,2019/7/8,12:17,35-34.74N,139-47.73E,137,21.455,25.1188,8.1
739,2019/7/8,12:18,35-34.60N,139-47.95E,127,21.957,25.1265,8.05
740,2019/7/8,12:19,35-34.45N,139-48.19E,127,21.751,25.1129,8.01
741,2019/7/8,12:20,35-34.30N,139-48.44E,127,21.409,25.0301,8.02
742,2019/7/8,12:21,35-34.13N,139-48.70E,127,21.366,25.0292,8.02
743,2019/7/8,12:22,35-33.96N,139-48.97E,128,21.463,25.0657,8
744,2019/7/8,12:23,35-33.79N,139-49.25E,127,21.876,25.1314,7.98
745,2019/7/8,12:24,35-33.61N,139-49.53E,127,22.04,25.1774,7.98
746,2019/7/8,12:25,35-33.43N,139-49.82E,127,21.964,25.2749,8.01
747,2019/7/8,12:26,35-33.25N,139-50.12E,125,21.867,25.3793,8.06
748,2019/7/8,12:27,35-33.04N,139-50.42E,134,21.9,25.487,8.1
749,2019/7/8,12:28,35-32.76N,139-50.57E,162,22.202,25.5757,8.1
750,2019/7/8,12:29,35-32.47N,139-50.66E,164,22.345,25.6047,8.09
751,2019/7/8,12:30,35-32.19N,139-50.76E,164,22.181,25.595,8.12
752,2019/7/8,12:31,35-31.89N,139-50.84E,172,22.088,25.6358,8.16
753,2019/7/8,12:32,35-31.58N,139-50.85E,177,22.076,25.7317,8.16
754,2019/7/8,12:33,35-31.27N,139-50.86E,176,22.075,25.8816,8.18
755,2019/7/8,12:34,35-31.01N,139-50.88E,177,22.051,26.05,8.19
756,2019/7/8,12:35,35-30.71N,139-50.90E,177,22,26.2415,8.19
757,2019/7/8,12:36,35-30.39N,139-50.92E,177,22.034,26.4404,8.2
758,2019/7/8,12:37,35-30.07N,139-50.93E,177,21.97,26.6275,8.19
759,2019/7/8,12:38,35-29.76N,139-50.94E,183,21.94,26.8391,8.18
760,2019/7/8,12:39,35-29.45N,139-50.84E,197,21.848,27.0712,8.19
761,2019/7/8,12:40,35-29.14N,139-50.71E,197,21.853,27.3073,8.21
762,2019/7/8,12:41,35-28.87N,139-50.53E,218,21.924,27.5287,8.21
763,2019/7/8,12:42,35-28.67N,139-50.25E,228,21.981,27.7209,8.21
764,2019/7/8,12:43,35-28.46N,139-49.96E,227,22.019,27.8788,8.2
765,2019/7/8,12:44,35-28.24N,139-49.67E,226,22.022,28.0134,8.21
766,2019/7/8,12:45,35-28.03N,139-49.37E,231,22.029,28.1558,8.21
767,2019/7/8,12:46,35-27.83N,139-49.05E,233,22.055,28.3135,8.21
768,2019/7/8,12:47,35-27.63N,139-48.74E,232,22.037,28.4254,8.21
769,2019/7/8,12:48,35-27.44N,139-48.42E,233,22.037,28.4887,8.21
770,2019/7/8,12:49,35-27.25N,139-48.10E,233,22.03,28.5092,8.21
771,2019/7/8,12:50,35-27.06N,139-47.78E,234,22.011,28.511,8.21
772,2019/7/8,12:51,35-26.87N,139-47.46E,234,22.007,28.514,8.21
773,2019/7/8,12:52,35-26.68N,139-47.13E,234,21.989,28.5134,8.21
774,2019/7/8,12:53,35-26.49N,139-46.80E,234,21.976,28.5194,8.21
775,2019/7/8,12:54,35-26.30N,139-46.49E,234,21.966,28.5311,8.2
776,2019/7/8,12:55,35-26.11N,139-46.16E,234,21.994,28.5446,8.19
777,2019/7/8,12:56,35-25.92N,139-45.83E,234,21.962,28.5605,8.2
778,2019/7/8,12:57,35-25.73N,139-45.50E,236,21.947,28.5763,8.19
779,2019/7/8,12:58,35-25.56N,139-45.17E,237,21.907,28.5967,8.19
780,2019/7/8,12:59,35-25.38N,139-44.82E,238,21.905,28.6224,8.19
781,2019/7/8,13:00,35-25.21N,139-44.48E,238,21.909,28.6532,8.19
782,2019/7/8,13:01,35-25.04N,139-44.15E,238,21.856,28.6753,8.19
783,2019/7/8,13:02,35-24.87N,139-43.81E,238,21.811,28.7007,8.18
784,2019/7/8,13:03,35-24.70N,139-43.47E,238,21.826,28.727,8.18
785,2019/7/8,13:04,35-24.51N,139-43.16E,225,21.842,28.748,8.18
786,2019/7/8,13:05,35-24.25N,139-42.99E,204,21.834,28.7718,8.18
787,2019/7/8,13:06,35-23.97N,139-42.83E,204,21.853,28.7967,8.18
788,2019/7/8,13:07,35-23.68N,139-42.67E,203,21.868,28.8279,8.18
789,2019/7/8,13:08,35-23.39N,139-42.51E,205,21.866,28.8538,8.18
790,2019/7/8,13:09,35-23.11N,139-42.36E,201,21.856,28.8922,8.19
791,2019/7/8,13:10,35-22.80N,139-42.33E,177,21.881,28.9335,8.19
792,2019/7/8,13:11,35-22.50N,139-42.36E,175,21.848,28.9697,8.19
793,2019/7/8,13:12,35-22.18N,139-42.39E,175,21.876,28.9937,8.2
794,2019/7/8,13:13,35-21.86N,139-42.41E,176,21.856,29.0092,8.2
795,2019/7/8,13:14,35-21.54N,139-42.43E,177,21.871,29.0187,8.18
796,2019/7/8,13:15,35-21.21N,139-42.44E,179,21.854,29.0301,8.19
797,2019/7/8,13:16,35-20.89N,139-42.45E,179,21.833,29.0405,8.18
798,2019/7/8,13:17,35-20.57N,139-42.44E,180,21.814,29.0537,8.19
799,2019/7/8,13:18,35-20.28N,139-42.44E,181,21.758,29.0734,8.18
800,2019/7/8,13:19,35-20.03N,139-42.42E,181,21.64,29.1015,8.18
801,2019/7/8,13:20,35-19.81N,139-42.49E,156,21.733,29.1367,8.18
802,2019/7/8,13:21,35-19.63N,139-42.63E,147,21.417,29.1643,8.17
803,2019/7/8,13:22,35-19.45N,139-42.77E,147,21.306,29.199,8.17
804,2019/7/8,13:23,35-19.27N,139-42.91E,147,21.222,29.2489,8.13
805,2019/7/8,13:24,35-19.08N,139-43.06E,147,21.158,29.2903,8.07
806,2019/7/8,13:25,35-18.90N,139-43.20E,146,21.139,29.3187,8.05
807,2019/7/8,13:26,35-18.73N,139-43.34E,145,21.114,29.349,8.04
808,2019/7/8,13:27,35-18.55N,139-43.50E,143,21.116,29.3919,8.03
809,2019/7/8,13:28,35-18.38N,139-43.65E,143,21.106,29.4359,8.04
810,2019/7/8,13:29,35-18.20N,139-43.81E,143,21.073,29.4907,8.04
811,2019/7/8,13:30,35-18.03N,139-43.96E,144,21.054,29.5722,8.04
812,2019/7/8,13:31,35-17.86N,139-44.11E,142,20.942,29.6853,8.04
813,2019/7/8,13:32,35-17.69N,139-44.27E,142,21.06,29.8259,8.04
814,2019/7/8,13:33,35-17.52N,139-44.43E,142,21.1,29.9665,8.04
815,2019/7/8,13:34,35-17.35N,139-44.60E,142,21.195,30.0872,8.04
816,2019/7/8,13:35,35-17.18N,139-44.76E,141,21.217,30.1875,8.06
817,2019/7/8,13:36,35-17.01N,139-44.91E,144,21.386,30.2689,8.07
818,2019/7/8,13:37,35-16.84N,139-45.06E,144,21.327,30.3354,8.08
819,2019/7/8,13:38,35-16.67N,139-45.21E,144,21.336,30.3714,8.1
820,2019/7/8,13:39,35-16.49N,139-45.36E,145,21.307,30.3925,8.11
821,2019/7/8,13:40,35-16.31N,139-45.51E,145,21.355,30.3932,8.12
822,2019/7/8,13:41,35-16.13N,139-45.67E,145,21.407,30.3751,8.13
823,2019/7/8,13:42,35-15.95N,139-45.82E,145,21.381,30.3654,8.12
824,2019/7/8,13:43,35-15.77N,139-45.97E,146,21.412,30.3513,8.12
825,2019/7/8,13:44,35-15.59N,139-46.12E,146,21.411,30.3253,8.12
826,2019/7/8,13:45,35-15.40N,139-46.24E,158,21.427,30.2957,8.13
827,2019/7/8,13:46,35-15.18N,139-46.29E,173,21.405,30.2774,8.13
828,2019/7/8,13:47,35-14.97N,139-46.31E,176,21.227,30.2621,8.15
829,2019/7/8,13:48,35-14.76N,139-46.32E,176,21.079,30.2413,8.15
830,2019/7/8,13:49,35-14.55N,139-46.34E,176,20.875,30.2225,8.15
831,2019/7/8,13:50,35-14.34N,139-46.35E,176,20.786,30.2484,8.14
832,2019/7/8,13:51,35-14.13N,139-46.36E,177,20.79,30.2734,8.13
833,2019/7/8,13:52,35-13.92N,139-46.37E,177,20.708,30.284,8.12
834,2019/7/8,13:53,35-13.71N,139-46.39E,177,20.682,30.2828,8.12
835,2019/7/8,13:54,35-13.50N,139-46.39E,178,20.46,30.2855,8.11
836,2019/7/8,13:55,35-13.29N,139-46.40E,179,20.408,30.2995,8.11
837,2019/7/8,13:56,35-13.08N,139-46.37E,191,20.649,30.3498,8.1
838,2019/7/8,13:57,35-12.88N,139-46.30E,196,20.736,30.3873,8.09
839,2019/7/8,13:58,35-12.66N,139-46.23E,194,20.754,30.4399,8.1
840,2019/7/8,13:59,35-12.41N,139-46.15E,193,20.734,30.5231,8.1
841,2019/7/8,14:00,35-12.14N,139-46.07E,194,20.645,30.6308,8.1
842,2019/7/8,14:01,35-11.85N,139-45.98E,194,20.648,30.7728,8.1
843,2019/7/8,14:02,35-11.55N,139-45.88E,195,20.649,30.8995,8.1
844,2019/7/8,14:03,35-11.24N,139-45.77E,195,20.645,30.9584,8.08
845,2019/7/8,14:04,35-10.92N,139-45.66E,195,20.603,30.9828,8.07
846,2019/7/8,14:05,35-10.61N,139-45.56E,195,20.673,31.0159,8.07
847,2019/7/8,14:06,35-10.29N,139-45.46E,195,20.71,31.0503,8.07
848,2019/7/8,14:07,35-09.97N,139-45.35E,195,20.782,31.0858,8.06
849,2019/7/8,14:08,35-09.64N,139-45.25E,194,20.817,31.1218,8.07
850,2019/7/8,14:09,35-09.32N,139-45.14E,194,20.871,31.167,8.07
851,2019/7/8,14:10,35-08.99N,139-45.04E,194,20.887,31.1958,8.07
852,2019/7/8,14:11,35-08.67N,139-44.93E,194,20.86,31.1851,8.08
853,2019/7/8,14:12,35-08.35N,139-44.83E,195,20.803,31.1574,8.1
854,2019/7/8,14:13,35-08.03N,139-44.73E,194,20.747,31.1394,8.1
855,2019/7/8,14:14,35-07.71N,139-44.63E,194,20.758,31.126,8.1
856,2019/7/8,14:15,35-07.39N,139-44.53E,194,20.774,31.1313,8.1
857,2019/7/8,14:16,35-07.07N,139-44.43E,194,20.705,31.1473,8.1
858,2019/7/8,14:17,35-06.75N,139-44.33E,193,20.683,31.1509,8.1
859,2019/7/8,14:18,35-06.43N,139-44.24E,193,20.663,31.1593,8.1
860,2019/7/8,14:19,35-06.12N,139-44.15E,194,20.672,31.1693,8.1
861,2019/7/8,14:20,35-05.80N,139-44.05E,194,20.682,31.1782,8.1
862,2019/7/8,14:21,35-05.48N,139-43.95E,194,20.712,31.1941,8.09
863,2019/7/8,14:22,35-05.17N,139-43.85E,195,20.633,31.22,8.09
864,2019/7/8,14:23,35-04.85N,139-43.73E,196,20.674,31.2669,8.1
865,2019/7/8,14:24,35-04.53N,139-43.62E,196,20.763,31.3315,8.09
866,2019/7/8,14:25,35-04.22N,139-43.51E,196,20.756,31.3893,8.09
867,2019/7/8,14:26,35-03.91N,139-43.39E,196,20.732,31.4431,8.08
868,2019/7/8,14:27,35-03.60N,139-43.28E,196,20.703,31.4961,8.08
869,2019/7/8,14:28,35-03.28N,139-43.17E,196,20.666,31.5501,8.09
870,2019/7/8,14:29,35-02.97N,139-43.06E,196,20.635,31.6202,8.09
871,2019/7/8,14:30,35-02.66N,139-42.95E,196,20.655,31.7215,8.09
872,2019/7/8,14:31,35-02.34N,139-42.83E,196,20.805,31.853,8.08
873,2019/7/8,14:32,35-02.03N,139-42.72E,196,20.684,31.9431,8.09
874,2019/7/8,14:33,35-01.71N,139-42.61E,195,20.923,32.0052,8.09
875,2019/7/8,14:34,35-01.40N,139-42.50E,195,21.082,32.0895,8.09
876,2019/7/8,14:35,35-01.08N,139-42.40E,194,21.684,32.144,8.09
877,2019/7/8,14:36,35-00.75N,139-42.30E,194,22.283,32.1792,8.1
878,2019/7/8,14:37,35-00.42N,139-42.20E,192,22.863,32.1649,8.1
879,2019/7/8,14:38,35-00.10N,139-42.13E,189,23.384,32.1751,8.1
880,2019/7/8,14:39,34-59.77N,139-42.09E,184,23.488,32.1585,8.1
881,2019/7/8,14:40,34-59.43N,139-42.08E,180,23.512,32.2379,8.1
882,2019/7/8,14:41,34-59.08N,139-42.10E,177,23.533,32.3941,8.1
883,2019/7/8,14:42,34-58.73N,139-42.12E,175,23.797,32.6,8.1
884,2019/7/8,14:43,34-58.39N,139-42.17E,171,24.07,32.8166,8.1
885,2019/7/8,14:44,34-58.06N,139-42.29E,156,24.272,33.014,8.1
886,2019/7/8,14:45,34-57.76N,139-42.50E,147,24.33,33.2011,8.1
887,2019/7/8,14:46,34-57.47N,139-42.76E,143,24.362,33.3702,8.11
888,2019/7/8,14:47,34-57.19N,139-43.02E,142,24.433,33.5147,8.1
889,2019/7/8,14:48,34-56.90N,139-43.29E,142,24.35,33.6241,8.1
890,2019/7/8,14:49,34-56.61N,139-43.57E,142,24.301,33.7098,8.1
891,2019/7/8,14:50,34-56.31N,139-43.83E,144,23.783,33.7803,8.1
892,2019/7/8,14:51,34-56.01N,139-44.08E,144,23.635,33.8669,8.1
893,2019/7/8,14:52,34-55.72N,139-44.34E,144,23.62,33.9772,8.1
894,2019/7/8,14:53,34-55.42N,139-44.60E,144,23.609,34.0205,8.1
895,2019/7/8,14:54,34-55.12N,139-44.86E,144,23.792,34.0327,8.1
896,2019/7/8,14:55,34-54.81N,139-45.12E,145,23.985,34.0286,8.1
897,2019/7/8,14:56,34-54.50N,139-45.38E,144,24.108,33.9912,8.1
898,2019/7/8,14:57,34-54.21N,139-45.65E,141,23.858,33.9575,8.1
899,2019/7/8,14:58,34-53.92N,139-45.94E,140,23.65,33.9519,8.1
900,2019/7/8,14:59,34-53.64N,139-46.21E,141,23.624,34.0112,8.1
901,2019/7/8,15:00,34-53.36N,139-46.50E,137,23.6,34.0527,8.1
902,2019/7/8,15:01,34-53.10N,139-46.81E,134,23.496,34.066,8.1
903,2019/7/8,15:02,34-52.85N,139-47.14E,133,23.4,34.0728,8.1
904,2019/7/8,15:03,34-52.59N,139-47.46E,134,23.274,34.0856,8.1
905,2019/7/8,15:04,34-52.35N,139-47.78E,130,22.995,34.1007,8.1
906,2019/7/8,15:05,34-52.15N,139-48.10E,125,22.549,34.1247,8.1
907,2019/7/8,15:06,34-51.97N,139-48.45E,121,22.37,34.1754,8.1
908,2019/7/8,15:07,34-51.80N,139-48.79E,121,22.31,34.2054,8.1
909,2019/7/8,15:08,34-51.64N,139-49.12E,120,20.596,34.1998,8.09
910,2019/7/8,15:09,34-51.48N,139-49.45E,120,20.598,34.3076,8.09
911,2019/7/8,15:10,34-51.33N,139-49.76E,120,20.747,34.3988,8.08
912,2019/7/8,15:11,34-51.21N,139-50.09E,112,20.941,34.3542,8.08
913,2019/7/8,15:12,34-51.12N,139-50.41E,108,21.044,34.2451,8.07
914,2019/7/8,15:13,34-51.03N,139-50.73E,107,20.957,34.1453,8.07
915,2019/7/8,15:14,34-50.94N,139-51.06E,108,20.924,34.0755,8.07
916,2019/7/8,15:15,34-50.85N,139-51.39E,108,20.875,34.0467,8.08
917,2019/7/8,15:16,34-50.76N,139-51.71E,107,20.838,34.0317,8.08
918,2019/7/8,15:17,34-50.67N,139-52.04E,109,20.833,34.0176,8.08
919,2019/7/8,15:18,34-50.57N,139-52.36E,110,20.798,34.0028,8.08
920,2019/7/8,15:19,34-50.49N,139-52.68E,105,20.788,33.9887,8.08
921,2019/7/8,15:20,34-50.44N,139-53.01E,96,20.71,33.9792,8.08
922,2019/7/8,15:21,34-50.44N,139-53.35E,89,20.678,33.9723,8.08
923,2019/7/8,15:22,34-50.46N,139-53.67E,83,20.596,33.9702,8.08
924,2019/7/8,15:23,34-50.50N,139-54.02E,82,20.517,33.9695,8.08
925,2019/7/8,15:24,34-50.54N,139-54.35E,81,20.435,33.9686,8.08
926,2019/7/8,15:25,34-50.59N,139-54.69E,77,20.303,33.9669,8.08
927,2019/7/8,15:26,34-50.65N,139-55.01E,77,20.12,33.9727,8.08
928,2019/7/8,15:27,34-50.72N,139-55.34E,75,19.986,33.9792,8.07
929,2019/7/8,15:28,34-50.80N,139-55.67E,72,19.749,33.9887,8.08
930,2019/7/8,15:29,34-50.90N,139-55.99E,69,19.463,33.9876,8.07
931,2019/7/8,15:30,34-51.01N,139-56.32E,67,19.383,33.9976,8.07
932,2019/7/8,15:31,34-51.12N,139-56.64E,66,19.268,33.9929,8.07
933,2019/7/8,15:32,34-51.23N,139-56.96E,67,19.202,33.9603,8.07
934,2019/7/8,15:33,34-51.35N,139-57.27E,65,19.392,33.9276,8.06
935,2019/7/8,15:34,34-51.47N,139-57.58E,64,19.414,33.8723,8.06
936,2019/7/8,15:35,34-51.59N,139-57.90E,65,19.408,33.821,8.07
937,2019/7/8,15:36,34-51.71N,139-58.21E,65,19.423,33.7989,8.07
938,2019/7/8,15:37,34-51.82N,139-58.51E,66,19.36,33.8043,8.08
939,2019/7/8,15:38,34-51.92N,139-58.82E,66,19.212,33.8077,8.08
940,2019/7/8,15:39,34-52.03N,139-59.12E,66,19.011,33.8401,8.07
941,2019/7/8,15:40,34-52.14N,139-59.42E,66,18.897,33.893,8.07
942,2019/7/8,15:41,34-52.24N,139-59.72E,67,18.841,33.9437,8.07
943,2019/7/8,15:42,34-52.35N,140-00.02E,67,18.804,33.9856,8.07
944,2019/7/8,15:43,34-52.45N,140-00.32E,67,18.788,34.0124,8.07
945,2019/7/8,15:44,34-52.55N,140-00.62E,67,18.798,34.0126,8.06
946,2019/7/8,15:45,34-52.66N,140-00.92E,68,18.81,34,8.06
947,2019/7/8,15:46,34-52.76N,140-01.22E,68,18.822,33.9846,8.06
948,2019/7/8,15:47,34-52.86N,140-01.52E,68,18.821,33.9685,8.06
949,2019/7/8,15:48,34-52.96N,140-01.83E,67,18.841,33.9531,8.06
950,2019/7/8,15:49,34-53.08N,140-02.13E,63,18.831,33.9425,8.06
951,2019/7/8,15:50,34-53.20N,140-02.42E,62,18.822,33.9347,8.06
952,2019/7/8,15:51,34-53.33N,140-02.71E,62,18.848,33.9318,8.06
953,2019/7/8,15:52,34-53.45N,140-03.01E,62,18.933,33.9287,8.06
954,2019/7/8,15:53,34-53.58N,140-03.31E,62,18.971,33.9145,8.06
955,2019/7/8,15:54,34-53.71N,140-03.60E,61,19.029,33.9033,8.06
956,2019/7/8,15:55,34-53.84N,140-03.90E,62,18.976,33.8936,8.06
957,2019/7/8,15:56,34-53.96N,140-04.19E,62,19.04,33.8958,8.07
958,2019/7/8,15:57,34-54.09N,140-04.48E,62,19.15,33.9134,8.06
959,2019/7/8,15:58,34-54.21N,140-04.77E,62,19.185,33.9163,8.06
960,2019/7/8,15:59,34-54.34N,140-05.06E,62,19.232,33.9175,8.06
961,2019/7/8,16:00,34-54.46N,140-05.36E,62,19.236,33.9262,8.07
962,2019/7/8,16:01,34-54.59N,140-05.66E,62,19.186,33.9362,8.07
963,2019/7/8,16:02,34-54.72N,140-05.95E,62,19.249,33.9537,8.07
964,2019/7/8,16:03,34-54.85N,140-06.25E,61,19.311,33.9743,8.07
965,2019/7/8,16:04,34-54.97N,140-06.54E,62,19.36,33.9808,8.07
966,2019/7/8,16:05,34-55.09N,140-06.83E,62,19.395,33.9878,8.07
967,2019/7/8,16:06,34-55.22N,140-07.12E,62,19.459,33.9965,8.06
968,2019/7/8,16:07,34-55.35N,140-07.42E,62,19.523,34.0041,8.07
969,2019/7/8,16:08,34-55.48N,140-07.72E,62,19.523,34.0083,8.07
970,2019/7/8,16:09,34-55.61N,140-08.02E,62,19.557,34.0175,8.07
971,2019/7/8,16:10,34-55.74N,140-08.33E,62,19.601,34.0378,8.07
972,2019/7/8,16:11,34-55.86N,140-08.62E,63,19.616,34.0506,8.07
973,2019/7/8,16:12,34-55.99N,140-08.92E,62,19.599,34.0607,8.07
974,2019/7/8,16:13,34-56.12N,140-09.22E,61,19.626,34.0723,8.07
975,2019/7/8,16:14,34-56.25N,140-09.51E,61,19.606,34.0885,8.07
976,2019/7/8,16:15,34-56.39N,140-09.81E,60,19.666,34.0994,8.07
977,2019/7/8,16:16,34-56.53N,140-10.11E,61,19.677,34.1107,8.07
978,2019/7/8,16:17,34-56.66N,140-10.41E,60,19.69,34.1103,8.07
979,2019/7/8,16:18,34-56.80N,140-10.70E,61,19.754,34.118,8.07
980,2019/7/8,16:19,34-56.93N,140-11.00E,61,19.811,34.1183,8.07
981,2019/7/8,16:20,34-57.07N,140-11.29E,60,19.83,34.1076,8.07
982,2019/7/8,16:21,34-57.20N,140-11.59E,60,19.862,34.1025,8.07
983,2019/7/8,16:22,34-57.34N,140-11.88E,60,19.808,34.1051,8.07
984,2019/7/8,16:23,34-57.48N,140-12.18E,59,19.676,34.1086,8.07
985,2019/7/8,16:24,34-57.62N,140-12.48E,60,19.615,34.1317,8.07
986,2019/7/8,16:25,34-57.77N,140-12.77E,59,19.569,34.153,8.07
987,2019/7/8,16:26,34-57.91N,140-13.06E,60,19.611,34.1677,8.07
988,2019/7/8,16:27,34-58.04N,140-13.35E,60,19.63,34.1692,8.07
989,2019/7/8,16:28,34-58.17N,140-13.63E,60,19.629,34.1585,8.07
990,2019/7/8,16:29,34-58.31N,140-13.92E,59,19.653,34.1459,8.07
991,2019/7/8,16:30,34-58.44N,140-14.21E,61,19.692,34.1378,8.07
992,2019/7/8,16:31,34-58.57N,140-14.50E,61,19.666,34.1236,8.07
993,2019/7/8,16:32,34-58.70N,140-14.79E,61,19.621,34.1147,8.07
994,2019/7/8,16:33,34-58.83N,140-15.07E,61,19.643,34.1159,8.07
995,2019/7/8,16:34,34-58.96N,140-15.36E,61,19.648,34.1201,8.07
996,2019/7/8,16:35,34-59.09N,140-15.65E,62,19.635,34.112,8.07
997,2019/7/8,16:36,34-59.21N,140-15.93E,61,19.614,34.1095,8.07
998,2019/7/8,16:37,34-59.34N,140-16.21E,61,19.594,34.1105,8.07
999,2019/7/8,16:38,34-59.46N,140-16.49E,61,19.6,34.1106,8.07
1000,2019/7/8,16:39,34-59.58N,140-16.77E,62,19.724,34.1129,8.07
1001,2019/7/8,16:40,34-59.71N,140-17.05E,61,19.794,34.1019,8.07
1002,2019/7/8,16:41,34-59.83N,140-17.32E,61,19.817,34.0844,8.07
1003,2019/7/8,16:42,34-59.95N,140-17.59E,62,19.845,34.0725,8.07
1004,2019/7/8,16:43,35-00.07N,140-17.87E,61,19.85,34.069,8.07
1005,2019/7/8,16:44,35-00.20N,140-18.16E,62,19.843,34.0683,8.07
1006,2019/7/8,16:45,35-00.32N,140-18.44E,62,19.83,34.0729,8.07
1007,2019/7/8,16:46,35-00.44N,140-18.73E,62,19.782,34.0789,8.07
1008,2019/7/8,16:47,35-00.56N,140-19.01E,62,19.746,34.0885,8.07
1009,2019/7/8,16:48,35-00.68N,140-19.29E,63,19.709,34.0978,8.07
1010,2019/7/8,16:49,35-00.81N,140-19.58E,62,19.685,34.1066,8.07
1011,2019/7/8,16:50,35-00.93N,140-19.86E,63,19.682,34.1114,8.07
1012,2019/7/8,16:51,35-01.05N,140-20.15E,62,19.689,34.113,8.07
1013,2019/7/8,16:52,35-01.17N,140-20.44E,62,19.711,34.1121,8.07
1014,2019/7/8,16:53,35-01.30N,140-20.73E,61,19.719,34.1064,8.07
1015,2019/7/8,16:54,35-01.42N,140-21.02E,62,19.747,34.1009,8.07
1016,2019/7/8,16:55,35-01.55N,140-21.31E,62,19.768,34.0974,8.07
1017,2019/7/8,16:56,35-01.67N,140-21.59E,63,19.779,34.0938,8.07
1018,2019/7/8,16:57,35-01.79N,140-21.89E,63,19.764,34.0924,8.07
1019,2019/7/8,16:58,35-01.91N,140-22.18E,61,19.802,34.096,8.07
1020,2019/7/8,16:59,35-02.05N,140-22.46E,57,19.847,34.0983,8.07
1021,2019/7/8,17:00,35-02.20N,140-22.73E,55,19.868,34.0938,8.07
1022,2019/7/8,17:01,35-02.36N,140-22.99E,54,19.965,34.0915,8.07
1023,2019/7/8,17:02,35-02.50N,140-23.25E,55,20.112,34.09,8.07
1024,2019/7/8,17:03,35-02.64N,140-23.51E,56,20.177,34.0733,8.07
1025,2019/7/8,17:04,35-02.79N,140-23.76E,54,20.136,34.0539,8.07
1026,2019/7/8,17:05,35-02.94N,140-24.02E,55,20.271,34.0552,8.07
1027,2019/7/8,17:06,35-03.09N,140-24.28E,55,20.344,34.0609,8.07
1028,2019/7/8,17:07,35-03.23N,140-24.54E,55,20.366,34.0509,8.07
1029,2019/7/8,17:08,35-03.39N,140-24.80E,54,20.388,34.0484,8.07
1030,2019/7/8,17:09,35-03.53N,140-25.06E,55,20.4,34.0544,8.07
1031,2019/7/8,17:10,35-03.68N,140-25.31E,55,20.396,34.0591,8.07
1032,2019/7/8,17:11,35-03.83N,140-25.57E,55,20.392,34.0627,8.07
1033,2019/7/8,17:12,35-03.97N,140-25.82E,54,20.388,34.068,8.07
1034,2019/7/8,17:13,35-04.12N,140-26.08E,56,20.366,34.0734,8.07
1035,2019/7/8,17:14,35-04.26N,140-26.34E,55,20.377,34.0772,8.07
1036,2019/7/8,17:15,35-04.41N,140-26.60E,55,20.38,34.0765,8.07
1037,2019/7/8,17:16,35-04.56N,140-26.86E,55,20.371,34.0729,8.07
1038,2019/7/8,17:17,35-04.71N,140-27.12E,55,20.371,34.0703,8.07
1039,2019/7/8,17:18,35-04.86N,140-27.38E,55,20.372,34.067,8.07
1040,2019/7/8,17:19,35-05.01N,140-27.64E,53,20.389,34.0654,8.07
1041,2019/7/8,17:20,35-05.17N,140-27.89E,51,20.593,34.0626,8.07
1042,2019/7/8,17:21,35-05.35N,140-28.12E,45,20.686,34.049,8.07
1043,2019/7/8,17:22,35-05.53N,140-28.35E,45,20.732,34.0178,8.08
1044,2019/7/8,17:23,35-05.72N,140-28.57E,45,20.746,34.0025,8.08
1045,2019/7/8,17:24,35-05.91N,140-28.79E,41,20.756,34.0009,8.08
1046,2019/7/8,17:25,35-06.12N,140-28.99E,37,20.756,34.0042,8.08
1047,2019/7/8,17:26,35-06.32N,140-29.18E,37,20.761,34.0075,8.08
1048,2019/7/8,17:27,35-06.53N,140-29.37E,36,20.748,34.0094,8.08
1049,2019/7/8,17:28,35-06.74N,140-29.56E,36,20.758,34.0099,8.08
1050,2019/7/8,17:29,35-06.95N,140-29.74E,35,20.752,34.0112,8.08
1051,2019/7/8,17:30,35-07.16N,140-29.93E,36,20.783,34.0105,8.08
1052,2019/7/8,17:31,35-07.37N,140-30.12E,36,20.801,34.0063,8.08
1053,2019/7/8,17:32,35-07.58N,140-30.31E,36,20.838,33.9991,8.09
1054,2019/7/8,17:33,35-07.80N,140-30.51E,36,20.872,33.9941,8.09
1055,2019/7/8,17:34,35-08.01N,140-30.69E,35,20.849,33.9879,8.08
1056,2019/7/8,17:35,35-08.22N,140-30.89E,36,20.834,33.9851,8.09
1057,2019/7/8,17:36,35-08.44N,140-31.07E,35,20.865,33.9938,8.09
1058,2019/7/8,17:37,35-08.65N,140-31.26E,36,20.877,33.9985,8.08
1059,2019/7/8,17:38,35-08.87N,140-31.45E,36,20.858,33.9968,8.08
1060,2019/7/8,17:39,35-09.09N,140-31.64E,35,20.863,33.9991,8.08
1061,2019/7/8,17:40,35-09.30N,140-31.84E,36,20.869,34.0096,8.08
1062,2019/7/8,17:41,35-09.51N,140-32.03E,36,20.856,34.0145,8.08
1063,2019/7/8,17:42,35-09.73N,140-32.22E,35,20.852,34.0213,8.08
1064,2019/7/8,17:43,35-09.94N,140-32.40E,35,20.794,34.0276,8.08
1065,2019/7/8,17:44,35-10.16N,140-32.59E,35,20.762,34.0329,8.08
1066,2019/7/8,17:45,35-10.38N,140-32.78E,35,20.821,34.0497,8.09
1067,2019/7/8,17:46,35-10.59N,140-32.97E,36,20.828,34.0532,8.08
1068,2019/7/8,17:47,35-10.80N,140-33.15E,35,20.864,34.0486,8.09
1069,2019/7/8,17:48,35-11.02N,140-33.34E,35,20.895,34.0445,8.09
1070,2019/7/8,17:49,35-11.23N,140-33.52E,35,20.916,34.0421,8.09
1071,2019/7/8,17:50,35-11.44N,140-33.71E,36,20.915,34.0433,8.08
1072,2019/7/8,17:51,35-11.65N,140-33.90E,36,20.974,34.048,8.09
1073,2019/7/8,17:52,35-11.86N,140-34.08E,36,21.028,34.0486,8.09
1074,2019/7/8,17:53,35-12.07N,140-34.27E,37,21.036,34.0482,8.08
1075,2019/7/8,17:54,35-12.27N,140-34.45E,36,21.097,34.0472,8.09
1076,2019/7/8,17:55,35-12.47N,140-34.64E,36,21.144,34.0537,8.08
1077,2019/7/8,17:56,35-12.68N,140-34.82E,36,21.166,34.0557,8.08
1078,2019/7/8,17:57,35-12.88N,140-35.00E,36,21.147,34.0606,8.08
1079,2019/7/8,17:58,35-13.08N,140-35.18E,36,21.115,34.0732,8.08
1080,2019/7/8,17:59,35-13.29N,140-35.37E,36,21.077,34.0911,8.08
1081,2019/7/8,18:00,35-13.49N,140-35.55E,35,21.051,34.1076,8.08
1082,2019/7/8,18:01,35-13.70N,140-35.73E,34,21.067,34.1206,8.08
1083,2019/7/8,18:02,35-13.91N,140-35.91E,35,21.117,34.1286,8.08
1084,2019/7/8,18:03,35-14.11N,140-36.09E,35,21.106,34.1295,8.08
1085,2019/7/8,18:04,35-14.32N,140-36.27E,36,21.076,34.1243,8.08
1086,2019/7/8,18:05,35-14.52N,140-36.44E,35,21.081,34.1283,8.08
1087,2019/7/8,18:06,35-14.73N,140-36.62E,34,21.097,34.1351,8.08
1088,2019/7/8,18:07,35-14.93N,140-36.80E,35,21.056,34.1391,8.08
1089,2019/7/8,18:08,35-15.14N,140-36.97E,35,21.007,34.144,8.08
1090,2019/7/8,18:09,35-15.35N,140-37.15E,35,20.927,34.1515,8.08
1091,2019/7/8,18:10,35-15.56N,140-37.33E,34,20.823,34.1653,8.08
1092,2019/7/8,18:11,35-15.76N,140-37.50E,34,20.753,34.1806,8.08
1093,2019/7/8,18:12,35-15.96N,140-37.67E,35,20.751,34.193,8.07
1094,2019/7/8,18:13,35-16.17N,140-37.85E,34,20.807,34.203,8.08
1095,2019/7/8,18:14,35-16.38N,140-38.02E,34,20.869,34.1934,8.07
1096,2019/7/8,18:15,35-16.58N,140-38.18E,34,20.888,34.1757,8.07
1097,2019/7/8,18:16,35-16.79N,140-38.36E,34,20.92,34.1621,8.07
1098,2019/7/8,18:17,35-17.00N,140-38.54E,34,20.949,34.157,8.07
1099,2019/7/8,18:18,35-17.21N,140-38.71E,34,20.966,34.1516,8.07
1100,2019/7/8,18:19,35-17.42N,140-38.88E,33,20.989,34.1509,8.07
1101,2019/7/8,18:20,35-17.62N,140-39.05E,34,21.006,34.1528,8.07
1102,2019/7/8,18:21,35-17.83N,140-39.22E,34,21.026,34.1554,8.07